Regional Weather Roundup
Issued by NWS

Home | Current Version | Previous Version | Graphics & Text | Print | Product List | Glossary On
Versions: 1 2 3 4 5 6 7 8 9 10 11 12 13 14 15 16 17 18 19 20 21 22 23 24 25 26 27 28 29 30 31 32 33 34 35 36 37 38 39 40 41 42 43 44 45 46 47 48 49 50
000
ASUS45 KTFX 040404
RWRMT
MONTANA REGIONAL WEATHER ROUNDUP
NATIONAL WEATHER SERVICE GREAT FALLS MT
1000 PM MDT THU SEP 03 2015

NOTE: "FAIR" INDICATES FEW OR NO CLOUDS BELOW 12000 FEET WITH NO
SIGNIFICANT WEATHER AND/OR OBSTRUCTIONS TO VISIBILITY.

MTZ001>007-043-040500-
WEST OF THE DIVIDE

CITY           SKY/WX    TMP DP  RH WIND       PRES   REMARKS
KALISPELL      CLOUDY    49  48  97 N5        29.97F
MISSOULA       MOCLDY    49  45  86 SE6       30.00R
BUTTE          CLOUDY    45  37  73 W10G21    30.01R
MULLAN PASS    CLOUDY    40  37  89 CALM      30.00S
DEER LODGE       N/A     46  43  87 NW7       30.06R
EUREKA           N/A     54  41  62 SE12      29.95
HAMILTON         N/A     50  48  93 NE3       29.97F
LIBBY            N/A     54  36  50 S3        29.94S
$$

MTZ008-052>055-040500-
SOUTHWEST MONTANA

CITY           SKY/WX    TMP DP  RH WIND       PRES   REMARKS
BOZEMAN        RAIN      55  48  77 SW12      29.90R
DILLON         CLOUDY    53  36  52 E6        29.90S
W YELLOWSTONE  CLOUDY    57  39  51 S28G33    30.01R
$$

MTZ009-010-012-014-046-048-049-054-040500-
EAST SLOPES AND CENTRAL MONTANA

CITY           SKY/WX    TMP DP  RH WIND       PRES   REMARKS
CUT BANK       CLOUDY    50  46  86 SE6       29.99R
GREAT FALLS    LGT RAIN  50  49  96 E8        29.99F
HELENA         CLOUDY    54  40  59 W10       29.97R
$$

MTZ011-013-016-021-045-047-050-051-040500-
NORTH CENTRAL MONTANA

CITY           SKY/WX    TMP DP  RH WIND       PRES   REMARKS
HAVRE          CLOUDY    54  49  83 NW7       29.97R
LEWISTOWN      CLEAR     53  42  66 W16G24    29.95R
N BAR RANCH      N/A     61  39  44 N9        29.94R
CHINOOK          N/A     55  46  71 CALM      29.96R
FORT BENTON      N/A     52  48  87 N6        30.00R
$$

MTZ017>020-022>027-061-062-040500-
NORTHEAST MONTANA

CITY           SKY/WX    TMP DP  RH WIND       PRES   REMARKS
GLASGOW        MOCLDY    66  36  32 NE23      29.84F
JORDAN           N/A     68  40  35 NE14      29.84R
SIDNEY         MOCLDY    72  48  43 N15         N/A
WOLF POINT     CLOUDY    69  39  33 N15       29.83R
PLENTYWOOD       N/A     66  39  37 N16G22    29.82S
POPLAR           N/A     68  39  34 N14G20    29.82R
$$

MTZ028>42-056>058-040500-
SOUTHCENTRAL AND SOUTHEAST MONTANA

CITY           SKY/WX    TMP DP  RH WIND       PRES   REMARKS
BAKER          CLOUDY    71  53  52 NE9       29.75F
BILLINGS       MOCLDY    66  40  38 N10       29.82S
LIVINGSTON     MOCLDY    64  39  39 E5        29.88R
MILES CITY     CLOUDY    72  52  49 NE21      29.74R THUNDER
FORSYTH          N/A     72  48  43 NE8       29.78F
$$

REGIONAL REPORTS...DAKOTAS

CITY           SKY/WX    TMP DP  RH WIND       PRES   REMARKS
WILLISTON      CLOUDY    71  53  52 N14       29.78S
MINOT          MOCLDY    75  70  84 NW9       29.72R
DICKINSON      PTCLDY    74  61  63 NE10      29.72F
BISMARCK       CLOUDY    85  58  39 S21       29.69S
GRAND FORKS    CLOUDY    81  73  76 S16G25    29.75R
FARGO          MOCLDY    80  73  79 SE15      29.79S
BUFFALO SD       N/A     72  51  47 E7        29.68S
RAPID CITY     CLOUDY    79  50  36 S13       29.78S
$$

REGIONAL REPORTS...WYOMING/IDAHO/WASHINGTON

CITY           SKY/WX    TMP DP  RH WIND       PRES   REMARKS
GILLETTE       CLOUDY    78  43  28 W14       29.81R
SHERIDAN       MOCLDY    68  40  35 W13       29.84R
BUFFALO WY     CLOUDY    68  40  35 N15       29.90R
CODY           PTCLDY    61  43  51 CALM      29.88R
YELLOWSTONE LA   N/A     50  38  63 NW3       30.05R
IDAHO FALLS    MOCLDY    65  45  48 S3        29.87R
SALMON         CLOUDY    54  39  58 CALM      29.92S
BOISE          MOCLDY    64  39  39 NW7       29.85R
SPOKANE        PTCLDY    57  28  33 S5        29.93R
$$

REGIONAL REPORTS...ALBERTA

CITY           SKY/WX    TMP DP  RH WIND       PRES   REMARKS
$$

REGIONAL REPORTS...SASKATCHEWAN

CITY           SKY/WX    TMP DP  RH WIND       PRES   REMARKS
$$


USA.gov is the U.S. government's official web portal to all federal, state and local government web resources and services.